CST,Max TemperatureF,Mean TemperatureF,Min TemperatureF,Max Dew PointF,MeanDew PointF,Min DewpointF,Max Humidity, Mean Humidity, Min Humidity, Max Sea Level PressureIn, Mean Sea Level PressureIn, Min Sea Level PressureIn, Max VisibilityMiles, Mean VisibilityMiles, Min VisibilityMiles, Max Wind SpeedMPH, Mean Wind SpeedMPH, Max Gust SpeedMPH,PrecipitationIn, CloudCover, Events, WindDirDegrees
2012-11-1,46,35,24,39,28,21,93,72,46,30.08,30.04,29.96,10,10,5,16,12,25,0.00,4,,15
2012-11-2,37,29,21,28,25,21,100,76,65,30.16,30.12,30.06,10,10,10,9,4,,0.00,4,,111
2012-11-3,42,38,33,36,30,27,93,78,61,30.21,30.18,30.15,10,10,7,7,2,,0.00,8,Rain-Snow,153
2012-11-4,37,36,35,37,35,34,100,95,93,30.20,30.16,30.13,7,4,1,8,5,,0.00,8,,107
2012-11-5,37,35,33,36,34,32,100,96,87,30.18,30.09,29.86,10,6,2,12,5,,0.03,7,,136
2012-11-6,44,40,35,39,36,34,100,87,71,30.03,29.88,29.77,10,9,4,22,14,30,0.06,7,Rain-Snow,335
2012-11-7,48,37,26,37,34,27,100,82,58,30.11,30.03,29.93,10,10,7,15,7,22,0.00,1,,229
2012-11-8,53,42,28,39,34,28,100,80,54,30.03,29.93,29.85,10,10,4,16,11,25,0.00,1,,71
2012-11-9,48,39,30,39,36,28,100,84,71,30.04,29.96,29.83,10,9,3,20,9,28,0.00,4,,99
2012-11-10,55,45,35,54,45,34,100,93,81,29.82,29.57,29.44,10,4,0,22,13,31,0.42,8,Fog-Rain-Thunderstorm,141
2012-11-11,33,24,15,34,18,10,100,78,68,29.92,29.81,29.59,10,10,7,23,19,31,0.00,7,,317
2012-11-12,24,18,12,18,14,10,93,81,68,30.26,30.08,29.90,10,9,2,22,12,28,0.00,5,Snow,311
2012-11-13,42,27,12,30,22,9,93,77,57,30.27,30.23,30.20,10,10,10,9,4,,0.00,3,,189
2012-11-14,48,34,21,36,30,21,100,79,50,30.23,30.17,30.09,10,10,7,9,3,,0.00,3,,195
2012-11-15,39,28,17,34,25,16,100,80,48,30.49,30.29,30.07,10,10,5,18,6,25,0.00,1,,359
2012-11-16,42,27,12,27,19,12,100,70,42,30.49,30.35,30.18,10,10,4,15,5,21,0.00,0,,174
2012-11-17,60,48,35,37,34,28,87,68,42,30.17,30.11,30.06,10,10,10,20,12,26,0.00,0,,186
2012-11-18,59,47,35,37,35,30,81,64,44,30.05,30.01,29.96,10,10,10,15,12,21,0.00,0,,182
2012-11-19,55,42,30,39,36,28,100,76,54,30.13,30.02,29.95,10,9,5,13,8,,0.00,1,,323
2012-11-20,48,32,15,39,28,14,100,81,57,30.19,30.09,29.94,10,6,0,14,5,21,0.00,3,Fog-Snow,166
2012-11-21,60,44,28,41,35,27,93,69,45,29.93,29.80,29.58,10,10,10,15,7,17,0.00,0,,178
2012-11-22,50,36,19,41,30,16,93,83,70,30.15,29.81,29.57,10,9,1,32,14,41,0.02,5,Snow,334
2012-11-23,21,14,6,18,11,3,93,82,79,30.43,30.36,30.16,10,9,2,32,22,43,0.00,7,Snow,353
2012-11-24,28,16,5,25,14,1,93,82,69,30.35,30.03,29.78,10,10,10,16,5,21,0.00,5,,182
2012-11-25,35,26,15,27,21,9,93,78,64,30.25,30.00,29.82,10,10,10,22,14,30,0.00,8,Snow,355
2012-11-26,21,12,3,9,5,0,85,74,54,30.45,30.35,30.25,10,10,10,15,10,20,0.00,1,Snow,331
2012-11-27,37,24,12,25,18,9,93,78,60,30.27,30.17,30.08,10,10,10,13,6,,0.00,1,,295
2012-11-28,39,30,21,27,23,19,93,77,61,30.30,30.19,30.03,10,10,10,15,6,,0.00,3,,210
2012-11-29,39,27,15,27,23,14,100,84,61,30.10,30.05,30.01,10,9,5,13,5,20,0.00,1,,101
2012-11-30,35,29,23,32,27,21,100,88,81,30.15,30.06,29.94,10,6,3,18,10,25,0.00,5,,146